VU3OPX-13 Weather Reports


time (UTC)temp
C
wind
direction
speed
KPH
gust
KPH
rain 1hr
cm
rain 24hr
cm
rain mn
cm
humidity
%
barometer
mb
20260504044304 33 295 16.1 0.0 0.00 0.00 20.98 25 1010.0
20260504041317 30 290 14.5 0.0 0.00 0.00 20.98 36 1011.0
20260504034328 30 290 14.5 0.0 0.00 0.00 20.98 35 1011.0
20260504031342 26 279 9.7 0.0 0.00 0.00 20.98 56 1011.0
20260504024354 26 279 9.7 0.0 0.00 0.00 20.98 55 1011.0
20260504021407 23 268 8.0 0.0 0.00 0.00 20.98 80 1010.0
20260504014419 23 268 8.0 0.0 0.00 0.00 20.98 80 1010.0
20260504011431 21 261 8.0 0.0 0.00 0.00 20.98 95 1010.0
20260504004444 21 261 8.0 0.0 0.00 0.00 20.98 95 1009.0
20260504001457 21 255 8.0 0.0 0.00 0.00 20.98 96 1009.0
20260503234509 21 250 8.0 0.0 0.00 0.00 20.98 96 1009.0
20260503231521 21 251 8.0 0.0 0.00 0.00 20.98 94 1008.0
20260503224534 21 251 8.0 0.0 0.00 0.00 20.98 94 1008.0
20260503221546 21 252 8.0 0.0 0.00 0.00 20.98 93 1008.0
20260503214559 21 252 8.0 0.0 0.00 0.00 20.98 93 1008.0
20260503211612 21 259 9.7 0.0 0.00 0.00 20.98 92 1008.0
20260503204624 21 259 9.7 0.0 0.00 0.00 20.98 92 1008.0
20260503201637 22 262 9.7 0.0 0.00 0.00 20.98 90 1009.0
20260503194650 22 262 9.7 0.0 0.00 0.00 20.98 90 1009.0
20260503191702 22 265 11.3 0.0 0.00 0.00 20.98 88 1009.0
20260503184715 22 265 11.3 0.0 0.00 0.00 20.98 89 1009.0
20260503181728 22 268 12.9 0.0 0.00 0.00 20.98 88 1010.0
20260503174740 22 268 12.9 0.0 0.00 0.00 20.98 88 1010.0
20260503171753 23 265 14.5 0.0 0.00 0.00 20.98 84 1010.0
20260503071827 37 279 19.3 0.0 0.00 0.00 20.98 18 1008.0